User: anonymous   Login
Location: Byszew
(52.1813°N, 19.2693°E)
Time: 21:58:42
(UTC+00:00)
Language:

Cosmos 1500 - Orbit

View from above orbital plane
View from above orbital plane
View from above satellite
View from above satellite

Ground track
Ground track

The orbit data is extracted from the following two-line orbital elements,

1 14372U 83099A   21134.64750175  .00000716  00000-0  32249-4 0  9990
2 14372  82.5165  11.0354 0015477 151.9234 266.3594 15.19288255 54065
Epoch (UTC): 14 May 2021 15:32:24
Eccentricity: 0.0015477
inclination: 82.5165°
perigee height: 497 km
apogee height: 518 km
right ascension of ascending node: 11.0354°
argument of perigee: 151.9234°
revolutions per day: 15.19288255
mean anomaly at epoch: 266.3594°
orbit number at epoch: 5406

The dashed part of the orbit path shows where the satellite is in the earth's shadow,  

DLR